Tracking 22441 objects as of 1-Mar-2021
HD Live streaming from Space Station
objects crossing your sky now

GALS 2

Track GALS 2 now!
GALS 2 is classified as:


NORAD ID: 23717
Int'l Code: 1995-063A
Perigee: 35,853.4 km
Apogee: 35,946.4 km
Inclination: 13.8 °
Period: 1,441.5 minutes
Semi major axis: 42270 km
RCS: 8.9125 m2 (large)
Launch date: November 17, 1995
Source: Commonwealth of Independent States (former USSR) (CIS)
Launch site: TYURATAM MISSILE AND SPACE COMPLEX (TTMTR)
aabbcc
Your satellite tracking list
Your tracking list is empty




NASA's NSSDC Master Catalog

Two Line Element Set (TLE):
1 23717U 95063A   21058.63030573 -.00000066  00000-0  00000-0 0  9999
2 23717  13.8393  17.1423 0010995 320.4394 223.6220  0.99894392 92298
Source of the keplerian elements: AFSPC